sat.trackr.live / text

‹ back to catalog

STARLINK-2674

NORAD 48354 · 2021-038B

PAYLOAD ACTIVE UNKNOWN

§ Identity

Operator
Country
US
Launch date
2021-05-04
Launch site
AFETR
Launch vehicle
Mass (kg)
RCS (m²)

Purposes: comms

External: N2YO · Heavens-Above · Gunter

§ Orbital elements

Epoch: 2026-09-19T22:25:17.713056Z

Period
94.01 min
Inclination
53.1598°
Eccentricity
0.0001176
Mean motion
15.31706788 rev/d
Perigee alt
469.9 km
Apogee alt
471.5 km
Semi-major
6,848.9 km
B*
-1.2797e-5
RAAN
174.2377°
Arg perigee
95.6020°
Mean anomaly
264.5115°
Rev number
29,684

§ Raw data

STARLINK-26741 48354U 21038B   26262.93423279 -.00000762  00000+0 -12797-4 0  99912 48354  53.1598 174.2377 0001176  95.6020 264.5115 15.31706788296844

JSON: /api/v1/satellites/48354 · /tle

For live sub-satellite position, see the globe view (requires WebGL).

§ Visibility from observer

Set your observer location to see the next 7 days of passes ≥ 10°. The values pass through the URL so the page stays shareable.

No JS? Fill the form by hand. The geolocation button needs JavaScript.